Weather History for Dutch Harbor, AK

Change the Weather History Date:

Sunday, October 7, 2012

  Actual Average Record
Temperature  
Mean Temperature 50 °F -  
Max Temperature 55 °F 49 °F 58 °F (1985)
Min Temperature 46 °F 35 °F 19 °F (1988)
Degree Days  
Heating Degree Days 14    
Moisture  
Dew Point 47 °F    
Average Humidity 86    
Maximum Humidity 93    
Minimum Humidity 77    
Precipitation  
Precipitation 0.16 in - - ()
Sea Level Pressure  
Sea Level Pressure 29.69 in    
Wind  
Wind Speed 8 mph (SE)    
Max Wind Speed 22 mph    
Max Gust Speed 21 mph    
Visibility 9 miles    
Events Rain    
Averages and records for this station are not official NWS values.
T = Trace of Precipitation, MM = Missing Value Source: NWS Daily Summary

Daily Weather History Graph

Daily Weather History Graph

Search for Another Location

Airport:

Trip Planner

Search our weather history database for the weather conditions in past years. The results will help you decide how hot, cold, wet, or windy it might be!

Date:

Astronomy

Oct. 07, 2012 Rise Set
Actual Time 9:20 AM AKDT 8:26 PM AKDT
Civil Twilight 8:45 AM AKDT 9:01 PM AKDT
Nautical Twilight 8:04 AM AKDT 9:42 PM AKDT
Astronomical Twilight 7:22 AM AKDT 10:23 PM AKDT
Moon 12:15 AM AKDT (10/7) 4:42 PM AKDT (10/7)
Length of Visible Light 12h 16m
Length of Day
11h 05m
Waning Gibbous, 55% of the Moon is Illuminated
Oct 7
Waning Gibbous
Oct 7
Last Quarter
Oct 15
New
Oct 21
First Quarter
Oct 29
Full

Hourly Weather History & Observations

Time (AKDT) Temp. Windchill Dew Point Humidity Pressure Visibility Wind Dir Wind Speed Gust Speed Precip Events Conditions
12:56 AM 46.9 °F - 45.0 °F 93% 29.71 in 10.0 mi ENE 9.2 mph - 0.00 in   Overcast
1:56 AM 48.0 °F - 45.0 °F 89% 29.69 in 8.0 mi ENE 5.8 mph - 0.01 in Rain Light Rain
2:56 AM 48.0 °F - 45.0 °F 89% 29.69 in 8.0 mi North 4.6 mph - 0.00 in   Overcast
3:21 AM 48.2 °F - 46.4 °F 93% 29.66 in 6.0 mi East 6.9 mph - N/A   Overcast
3:56 AM 48.0 °F - 45.0 °F 89% 29.67 in 10.0 mi East 6.9 mph - N/A   Overcast
4:56 AM 48.0 °F - 46.0 °F 93% 29.66 in 10.0 mi Calm Calm - N/A   Overcast
5:56 AM 48.0 °F - 45.0 °F 89% 29.66 in 10.0 mi Calm Calm - N/A   Overcast
6:56 AM 48.0 °F - 45.0 °F 89% 29.65 in 10.0 mi Calm Calm - 0.01 in Rain Light Rain
7:48 AM 48.2 °F - 44.6 °F 87% 29.62 in 8.0 mi East 4.6 mph - 0.03 in Rain Light Rain
7:56 AM 48.0 °F - 45.0 °F 89% 29.63 in 8.0 mi NW 5.8 mph - 0.04 in Rain Light Rain
8:17 AM 46.4 °F 45.2 °F 44.6 °F 93% 29.63 in 10.0 mi SW 3.5 mph - 0.01 in Rain Light Rain
8:33 AM 48.2 °F - 46.4 °F 93% 29.63 in 10.0 mi East 4.6 mph - 0.02 in Rain Light Rain
8:56 AM 48.9 °F - 46.0 °F 90% 29.64 in 10.0 mi SSE 9.2 mph - 0.04 in Rain Light Rain
9:56 AM 50.0 °F - 46.9 °F 89% 29.64 in 5.0 mi SSE 5.8 mph - 0.02 in Rain Light Rain
10:56 AM 51.1 °F - 48.9 °F 92% 29.64 in 6.0 mi South 9.2 mph - 0.03 in Rain Light Rain
11:56 AM 52.0 °F - 48.9 °F 89% 29.65 in 10.0 mi SSW 10.4 mph 16.1 mph 0.01 in   Overcast
12:56 PM 54.0 °F - 50.0 °F 86% 29.66 in 10.0 mi South 11.5 mph 20.7 mph 0.00 in Rain Light Rain
1:56 PM 55.0 °F - 48.9 °F 80% 29.67 in 10.0 mi SE 12.7 mph 20.7 mph 0.00 in   Overcast
2:56 PM 55.0 °F - 48.9 °F 80% 29.68 in 10.0 mi Variable 3.5 mph - N/A   Mostly Cloudy
3:56 PM 54.0 °F - 48.9 °F 83% 29.69 in 10.0 mi SE 11.5 mph - N/A   Mostly Cloudy
4:09 PM 55.4 °F - 48.2 °F 77% 29.68 in 10.0 mi SE 13.8 mph - N/A   Mostly Cloudy
4:56 PM 54.0 °F - 48.0 °F 80% 29.69 in 10.0 mi SE 21.9 mph - N/A   Mostly Cloudy
5:56 PM 54.0 °F - 48.0 °F 80% 29.72 in 10.0 mi SSE 16.1 mph - N/A   Mostly Cloudy
6:56 PM 53.1 °F - 46.9 °F 80% 29.74 in 10.0 mi SE 13.8 mph - N/A   Mostly Cloudy
7:56 PM 53.1 °F - 46.0 °F 77% 29.77 in 10.0 mi SE 11.5 mph - N/A   Mostly Cloudy
8:56 PM 53.1 °F - 46.0 °F 77% 29.79 in 10.0 mi SE 5.8 mph - N/A   Clear
9:56 PM 52.0 °F - 46.0 °F 80% 29.80 in 10.0 mi ESE 5.8 mph - 0.00 in   Partly Cloudy
10:56 PM 52.0 °F - 48.0 °F 86% 29.81 in 10.0 mi SE 15.0 mph - 0.00 in   Mostly Cloudy
11:08 PM 53.6 °F - 46.4 °F 77% 29.80 in 10.0 mi ESE 12.7 mph - N/A   Mostly Cloudy
11:56 PM 52.0 °F - 46.9 °F 83% 29.83 in 10.0 mi SSE 11.5 mph - N/A   Overcast